Tracking 29967 objects as of 5-Dec-2024
HD Live streaming from Space Station
objects crossing your sky now

SL-19 R/B

Track SL-19 R/B now!
10-day predictions


NORAD ID: 32957
Int'l Code: 2008-025E
Perigee: 1,204.2 km
Apogee: 1,511.1 km
Inclination: 82.5 °
Period: 112.7 minutes
Semi major axis: 7728 km
RCS: 6.575 m2 (large)
Launch date: May 23, 2008
Source: Commonwealth of Independent States (former USSR) (CIS)
Launch site: PLESETSK MISSILE AND SPACE COMPLEX (PKMTR)

Note: This is a ROCKET BODY
Your satellite tracking list
Your tracking list is empty




NASA's NSSDC Master Catalog

Two Line Element Set (TLE):
1 32957U 08025E   24340.61705821  .00000035  00000-0  10621-3 0  9995
2 32957  82.5019  90.9160 0198566 251.9249 117.9409 12.77751386771266
Source of the keplerian elements: AFSPC